Date,TemperatureHighF,TemperatureAvgF,TemperatureLowF,DewpointHighF,DewpointAvgF,DewpointLowF,HumidityHigh,HumidityAvg,HumidityLow,PressureMaxIn,PressureMinIn,WindSpeedMaxMPH,WindSpeedAvgMPH,GustSpeedMaxMPH,PrecipitationSumIn
2013-8-1,91.4,75.4,61.2,75.6,68.3,60.9,99,81,51,29.82,29.55,8,3,14,0.00
2013-8-2,81.0,68.6,21.2,69.5,62.8,21.0,99,84,54,29.70,29.61,100,5,100,56.09
2013-8-3,77.5,65.2,56.1,63.0,59.1,55.6,99,83,53,29.97,29.69,9,4,16,0.01
2013-8-4,66.6,62.2,55.9,64.8,61.5,55.7,99,97,88,29.99,29.90,8,3,15,0.10
2013-8-5,75.6,62.7,54.9,67.7,61.3,54.6,99,96,67,29.90,29.67,10,3,21,0.40
2013-8-6,75.0,61.4,50.2,60.7,53.3,49.9,99,78,47,29.96,29.85,4,1,8,0.01
2013-8-7,76.5,64.2,53.2,63.9,55.6,51.6,99,76,50,29.99,29.87,5,1,12,0.00
2013-8-8,79.2,65.0,48.0,60.2,55.7,47.8,99,75,45,30.04,29.97,7,2,11,0.00
2013-8-9,72.9,63.7,58.5,63.9,58.0,52.3,99,83,60,30.13,29.91,9,2,14,0.03
2013-8-10,71.4,62.7,56.5,59.0,53.4,48.2,98,74,47,30.12,30.04,8,1,13,0.00
2013-8-11,72.0,62.4,55.4,61.4,55.1,50.0,99,79,50,30.04,29.92,6,2,13,0.00
2013-8-12,70.7,60.4,54.0,57.2,53.3,49.6,99,79,53,30.03,29.92,8,2,16,0.00
2013-8-13,66.6,58.1,50.4,63.5,55.8,50.1,99,92,70,30.15,30.03,6,2,13,0.06
2013-8-14,70.9,61.0,48.6,64.9,58.3,48.3,99,92,67,30.15,30.01,7,2,13,0.00
2013-8-15,78.3,68.0,60.8,69.7,64.8,60.5,99,90,70,30.02,29.87,8,4,16,0.01
2013-8-16,78.6,66.5,58.1,69.5,62.6,56.1,99,89,60,29.93,29.81,7,2,12,0.55
2013-8-17,70.3,61.0,54.1,63.9,59.5,53.9,99,95,78,29.92,29.57,11,4,21,0.00
2013-8-18,75.6,65.0,57.9,62.5,56.6,51.2,99,77,48,29.84,29.56,8,2,15,0.00
2013-8-19,69.6,61.0,52.3,57.6,53.5,51.6,99,78,55,30.24,29.83,7,1,13,0.00
2013-8-20,79.9,63.9,50.7,62.4,56.6,50.4,99,80,50,30.28,30.20,4,1,8,0.00
2013-8-21,76.8,64.3,52.7,65.0,59.8,52.4,99,87,62,30.23,30.06,7,2,12,0.00
2013-8-22,78.4,67.8,60.3,70.8,65.3,60.0,99,92,70,30.08,29.94,5,1,11,0.03
2013-8-23,78.4,68.7,58.1,68.1,63.9,57.8,99,86,64,29.99,29.80,5,1,12,0.00
2013-8-24,70.0,62.7,57.0,65.2,60.0,52.4,99,92,74,29.85,29.77,8,2,17,0.00
2013-8-25,76.3,63.4,54.9,68.6,61.2,52.6,99,93,71,30.03,29.82,7,3,14,0.00
2013-8-26,83.7,67.1,56.1,69.2,60.5,55.8,99,82,47,30.08,29.99,6,2,10,0.00
2013-8-27,78.4,64.0,53.2,63.9,58.5,53.0,99,85,51,30.09,29.99,4,1,9,0.00
2013-8-28,78.6,64.6,55.6,66.5,60.6,55.3,99,88,62,30.16,30.09,4,1,8,0.00
2013-8-29,76.8,63.6,52.7,63.5,59.7,52.4,99,88,62,30.12,30.04,5,1,12,0.00
2013-8-30,78.4,66.3,57.9,67.5,63.0,57.6,99,90,65,30.07,29.94,7,2,14,0.00
2013-8-31,69.8,59.0,48.9,64.5,49.5,44.6,99,73,46,30.35,30.05,7,2,14,0.00